SES-11 (ECHOSTAR 105)

Last updated on Sun Oct 19 2025 00:02:50 GMT+0000 (Coordinated Universal Time)

1 42967U 17063A 25291.24750252 -.00000096 00000+0 00000+0 0 9995 2 42967 0.0239 298.4539 0002631 273.3500 159.3437 1.00272326 29293
UTC large
Height (km)
Speed (km/s)
/
Latitude / Longitude
Inclination (degrees)
Orbital Period (minutes)
Azimuth
Elevation
Range (km)
Doppler Factor

Next 0 passes for location: London (51.5072 / 0.1276)

Sorry there are no passes over London.